Wetbulb
72.22 71.83 70.99 67.29 59.63 58.98 56.04 58.30 62.82 60.90 61.31 64.99 65.03 63.95 62.43 63.41 60.87 54.36 69.13 71.61 72.93 73.67 75.16 76.15 77.63 76.56 76.03 76.93 76.10 75.45 75.30 75.44 75.76 76.80 76.71 77.11 77.24 77.29 77.41 77.28 77.47 77.34 76.94 77.24 76.54 76.54 76.95 76.24 75.93
71.15 70.68 69.39 65.44 56.95 53.78 55.19 61.63 58.49 61.39 63.87 66.03 65.87 64.80 62.86 60.88 66.30 67.10 68.55 72.07 73.82 74.23 74.29 75.25 76.91 76.89 76.57 77.39 76.61 76.60 77.15 77.01 76.02 76.25 76.28 76.91 77.13 77.16 77.31 77.31 77.13 77.20 77.30 77.22 76.87 76.87 76.48 76.10 75.80
71.56 71.00 64.22 61.01 57.71 54.21 55.13 61.40 60.80 63.05 65.22 64.60 63.95 65.97 64.33 63.06 67.53 67.94 71.18 72.74 73.63 72.95 73.31 74.04 77.18 77.60 77.07 76.90 77.15 76.61 76.51 76.90 76.52 76.20 76.51 76.47 76.79 77.04 77.14 77.27 77.11 77.42 77.34 77.00 76.49 76.51 76.64 75.82 75.41
69.65 68.73 65.46 58.00 55.97 59.71 60.88 61.89 62.55 62.10 64.30 65.48 64.89 61.68 66.07 69.06 68.06 70.42 72.19 72.65 71.58 72.53 73.28 75.86 76.77 76.95 76.96 76.93 76.86 77.07 76.75 76.83 76.69 76.71 76.49 76.25 76.64 76.86 76.88 77.11 76.95 76.62 76.74 76.38 76.27 76.24 76.13 75.80 75.90
69.96 66.91 59.70 55.07 56.30 60.73 63.97 63.80 62.93 61.21 63.14 63.80 64.67 61.84 63.24 68.08 70.66 71.09 70.87 71.25 71.45 72.63 74.21 74.77 77.74 77.27 76.69 76.52 76.74 76.62 76.66 76.88 76.87 76.81 76.58 76.70 76.69 76.84 76.90 76.87 76.70 76.85 76.70 76.51 75.66 75.43 76.21 75.96 76.77
64.40 64.69 55.61 53.10 57.42 62.26 63.93 65.41 62.84 62.10 63.91 64.07 63.27 62.39 62.60 69.03 68.96 69.99 71.06 71.56 72.73 72.81 74.19 75.09 76.97 76.78 76.82 77.13 76.82 76.82 76.74 76.82 76.59 76.52 76.48 76.49 76.50 77.09 76.84 76.67 76.46 76.29 76.49 76.68 76.37 75.77 75.82 75.68 76.30
62.98 60.08 55.95 57.93 59.07 60.65 62.77 66.49 62.09 62.70 63.03 62.96 65.33 60.93 64.04 66.66 70.31 71.69 72.32 72.61 73.45 74.28 73.67 73.76 74.41 75.99 77.03 76.86 76.99 77.02 76.83 76.56 76.27 76.49 76.47 76.33 76.25 76.56 76.48 76.73 76.41 76.41 76.49 76.60 76.04 75.40 75.09 75.36 75.74
65.81 63.54 58.12 58.92 58.34 58.65 64.70 65.28 66.18 64.01 62.64 67.40 66.73 60.89 61.23 67.14 70.82 71.36 71.62 71.97 71.98 72.77 73.64 73.25 73.59 74.00 73.40 74.29 76.72 76.56 76.53 76.54 76.66 76.20 76.46 76.31 76.45 76.65 76.48 77.21 77.03 76.55 76.27 75.93 75.96 75.48 75.19 74.48 74.85
68.43 60.11 57.47 58.39 58.88 60.67 64.88 62.52 65.93 67.72 64.21 65.27 66.45 65.73 67.53 69.89 70.64 69.82 69.43 70.27 71.04 72.25 72.28 73.27 72.70 72.70 73.04 73.56 75.07 76.17 76.52 76.36 76.50 76.01 76.45 75.26 72.48 73.09 74.03 76.20 77.29 76.66 76.27 76.37 75.03 75.09 74.61 74.18 74.39
63.65 59.59 60.28 63.43 63.57 62.65 64.36 63.72 64.19 65.00 64.00 63.93 64.58 67.70 68.95 69.18 69.19 68.26 68.01 68.13 68.81 70.10 71.64 72.21 71.78 72.07 72.85 75.02 73.24 72.37 73.81 72.57 72.58 72.21 71.93 71.67 71.35 72.30 73.76 75.32 76.63 76.46 76.69 74.57 73.04 73.77 74.22 72.47 71.50
62.68 59.79 62.50 64.70 65.65 65.97 63.83 64.07 66.38 64.29 61.26 63.25 62.46 65.17 67.26 67.28 68.05 67.69 68.38 68.52 68.91 69.96 70.59 71.34 71.63 72.02 71.87 72.45 72.35 72.34 72.30 71.99 71.53 70.90 71.00 70.89 71.65 72.20 72.14 70.76 70.97 72.04 73.17 68.81 70.54 71.23 70.06 68.89 68.84
58.30 60.90 63.32 65.82 66.49 65.14 62.94 65.24 64.53 64.81 64.72 65.57 66.02 66.88 67.55 66.23 66.41 67.57 67.80 68.61 69.20 69.88 70.55 71.13 71.45 71.38 70.95 72.53 71.88 71.40 71.42 70.52 70.48 70.75 71.38 69.34 68.54 69.75 69.24 69.04 69.51 68.90 67.56 68.40 68.91 69.60 70.97 71.85 70.85
59.89 60.96 64.01 66.00 65.84 65.14 66.29 63.99 63.86 63.61 66.69 66.94 65.88 67.11 66.62 66.09 66.73 67.66 68.81 69.43 69.89 69.63 70.64 70.88 71.35 71.49 71.56 71.96 71.10 70.74 71.12 70.19 70.52 70.30 70.46 70.40 66.97 68.70 69.76 69.72 67.99 70.19 69.27 68.37 68.90 69.46 69.47 70.04 71.24
63.76 64.35 63.71 65.59 65.15 65.36 63.29 63.47 63.26 64.42 67.53 65.07 65.17 65.41 65.90 66.30 66.15 67.65 68.49 68.93 69.26 70.09 70.47 70.41 71.62 72.56 71.46 70.63 70.89 70.51 70.78 70.57 70.09 69.82 70.43 71.48 68.40 68.27 67.37 69.07 66.98 69.59 68.68 66.10 68.52 68.40 67.83 69.79 68.32
64.47 60.47 63.67 64.71 63.95 62.92 65.09 60.86 60.62 64.28 66.15 63.62 64.17 64.02 65.98 65.92 68.18 67.84 68.98 68.13 68.86 69.87 69.66 70.43 70.62 72.22 71.86 70.14 69.94 69.87 70.04 70.37 70.72 71.51 71.68 71.03 69.71 69.20 69.39 69.04 69.18 69.72 70.24 70.45 69.29 69.63 70.73 70.21 68.50
59.56 60.49 55.73 62.41 63.58 63.90 63.00 57.09 62.32 64.57 65.48 62.99 63.69 63.33 63.81 66.87 67.79 68.67 68.96 68.67 69.43 69.46 69.74 70.70 72.12 72.09 72.08 71.30 70.36 70.38 70.45 70.43 71.36 72.14 72.39 70.55 70.88 70.79 70.10 69.01 69.02 69.65 70.36 70.22 69.02 69.54 69.32 67.95 67.50
55.01 52.30 54.71 59.85 63.15 62.70 61.53 58.05 62.52 65.44 65.16 61.98 63.01 62.01 64.10 65.56 67.48 69.02 69.62 69.11 69.95 68.96 68.33 69.49 70.75 71.10 71.43 72.18 70.92 70.28 70.72 71.04 71.15 71.44 71.74 72.21 72.69 72.59 71.07 69.86 69.89 70.45 70.22 70.02 69.20 68.03 68.12 68.34 68.15
43.59 51.17 54.30 56.65 60.60 60.61 58.67 59.47 62.34 64.03 65.08 62.04 62.75 60.76 63.89 64.49 65.63 68.16 69.28 69.63 69.70 68.46 67.95 70.07 69.99 71.14 71.54 71.03 71.22 70.93 70.93 70.66 72.84 73.26 72.64 73.21 72.40 71.56 71.03 70.63 71.36 70.97 69.19 69.45 69.92 68.50 68.61 67.50 66.40
47.61 47.37 54.22 56.78 60.77 58.31 58.52 59.21 61.38 62.91 63.74 63.27 62.07 59.63 62.57 64.60 66.02 67.21 68.90 69.51 69.22 69.00 67.63 67.75 69.88 70.33 70.90 70.09 69.36 69.49 69.06 70.32 70.63 71.38 72.98 72.95 71.93 69.83 70.66 70.77 71.60 71.04 69.56 68.73 69.28 70.25 68.28 68.62 67.79
47.92 49.60 55.03 57.72 59.64 59.25 57.30 58.85 61.21 62.36 61.60 63.67 61.88 59.74 61.29 63.36 64.52 66.57 68.18 68.48 68.22 68.17 67.49 68.38 70.21 69.64 70.18 70.55 70.52 71.01 70.11 70.55 71.07 71.02 70.90 72.89 71.50 70.13 71.33 70.63 70.55 70.35 70.43 70.63 70.50 69.78 68.15 67.66 66.55
45.04 44.10 54.26 55.04 55.63 56.68 56.47 55.26 58.07 62.38 63.24 63.04 63.81 62.50 62.04 62.36 62.29 65.25 67.03 67.49 67.75 68.23 69.22 68.35 69.84 68.38 69.29 71.14 70.64 70.26 68.86 68.56 69.60 70.28 71.10 72.30 72.92 72.95 70.44 71.22 70.91 69.61 69.49 69.15 69.94 68.22 66.19 65.45 67.67
39.79 48.93 56.77 56.46 53.63 50.08 55.67 46.82 53.09 56.98 59.87 62.02 63.05 63.66 62.55 62.94 63.23 65.67 66.74 67.15 67.50 68.61 70.61 69.59 70.01 69.58 70.75 70.42 69.11 68.55 67.37 66.22 68.26 69.27 71.04 71.79 73.26 72.73 72.04 71.97 70.00 71.35 69.66 69.18 70.43 70.36 69.29 67.55 67.67
45.37 51.47 56.98 56.50 51.25 52.73 51.81 47.37 51.86 55.31 57.06 59.84 62.63 63.60 63.81 64.08 63.76 63.66 66.24 67.54 68.44 69.41 70.65 70.29 70.04 69.14 71.02 70.83 69.34 67.99 65.31 67.00 69.40 70.22 70.47 71.21 71.04 73.14 73.10 70.08 69.92 70.44 69.57 69.21 69.35 71.23 70.30 70.35 69.72
50.85 54.98 54.72 54.10 48.96 43.24 49.62 50.69 51.37 53.50 56.94 60.11 62.45 63.38 65.04 64.92 65.09 64.72 66.09 68.23 68.40 69.65 71.12 70.46 69.57 68.27 69.34 71.22 70.07 68.29 67.94 68.49 68.61 68.97 70.12 70.79 71.23 71.76 72.74 72.96 71.63 70.69 69.94 69.52 70.32 69.31 71.04 70.34 70.60
48.42 43.43 38.05 41.61 41.11 40.56 51.03 50.29 50.57 57.25 60.30 61.26 62.04 63.21 63.77 65.94 65.71 65.86 65.14 66.94 67.76 68.72 70.17 71.21 69.43 68.11 68.91 70.23 70.65 70.14 69.40 68.72 69.57 69.08 70.19 69.93 70.65 71.29 70.91 72.61 71.55 70.97 69.29 68.49 70.54 71.59 70.21 71.35 70.11
44.62 44.23 38.32 36.51 37.06 40.39 51.67 47.55 49.47 59.58 62.83 63.45 64.47 64.92 64.98 64.94 65.61 66.15 66.31 66.56 67.55 68.76 69.79 71.46 70.19 68.88 70.08 70.38 70.75 70.48 70.78 70.49 70.05 69.76 69.35 70.23 70.85 71.40 71.84 72.80 72.82 72.73 72.43 72.18 72.05 70.90 71.47 70.97 70.47
43.88 42.46 45.66 41.84 41.04 41.58 47.24 49.72 55.47 58.17 59.42 62.55 62.54 62.21 63.17 65.28 65.89 65.92 66.33 66.90 67.31 68.06 69.81 70.37 70.90 70.65 70.17 71.05 70.83 70.83 71.24 70.59 69.47 69.99 70.69 69.53 71.06 72.41 73.47 73.23 73.34 72.99 73.16 72.29 72.49 71.72 71.82 71.35 70.09
47.32 49.01 42.09 39.79 36.95 37.95 44.21 45.90 47.26 52.22 56.89 60.54 60.29 60.92 63.05 65.31 67.58 67.77 67.97 68.24 68.70 69.13 69.37 70.19 71.13 70.08 70.05 71.46 71.26 72.26 71.70 71.00 71.11 71.16 71.20 72.15 71.55 72.64 72.82 73.08 73.42 73.36 73.22 72.82 72.37 71.58 71.23 70.84 70.92
46.05 43.60 44.11 42.33 40.81 41.38 40.72 46.13 57.49 56.65 59.20 59.19 59.90 61.24 62.01 63.06 65.28 65.90 67.13 68.19 68.48 68.97 68.52 68.91 68.80 69.36 69.43 70.07 69.90 70.09 72.24 72.12 71.29 71.99 72.09 71.22 71.28 71.21 71.43 71.60 71.99 72.06 72.67 72.78 71.47 71.13 71.54 70.66 70.81
47.63 44.77 42.54 39.45 40.92 43.21 42.43 47.96 59.07 58.49 59.25 59.11 59.83 60.49 61.33 62.28 63.60 65.09 66.10 67.11 67.52 68.03 69.00 68.82 68.76 68.84 69.32 69.59 70.04 70.62 71.61 71.41 72.00 72.40 72.54 72.06 70.69 70.79 70.15 69.79 69.43 69.68 70.52 71.75 72.39 71.46 72.12 70.80 69.76
MSLP
1012.17 1012.34 1012.66 1012.63 1013.21 1012.44 1010.77 1009.71 1008.85 1008.08 1008.37 1008.19 1009.43 1009.86 1010.87 1011.53 1012.71 1014.62 1014.96 1015.56 1015.94 1016.31 1016.49 1016.70 1016.82 1016.91 1017.04 1017.31 1017.55 1017.71 1017.76 1017.76 1017.77 1017.81 1017.86 1017.84 1017.80 1017.75 1017.71 1017.73 1017.78 1017.80 1017.90 1017.99 1018.06 1018.18 1018.24 1018.32 1018.31
1011.87 1012.29 1012.48 1012.56 1012.72 1011.73 1010.30 1009.35 1008.62 1007.93 1008.14 1008.43 1009.49 1010.03 1010.92 1012.82 1012.94 1014.27 1015.31 1015.69 1015.98 1016.32 1016.58 1016.82 1016.94 1017.08 1017.26 1017.42 1017.60 1017.71 1017.78 1017.91 1017.95 1017.96 1017.97 1017.96 1018.03 1018.11 1018.12 1018.21 1018.15 1018.08 1018.25 1018.42 1018.48 1018.50 1018.57 1018.61 1018.67
1011.75 1011.93 1012.67 1012.57 1012.47 1011.48 1009.87 1009.35 1008.61 1008.50 1008.18 1008.19 1009.66 1010.57 1011.62 1012.92 1013.72 1014.39 1015.10 1015.59 1016.08 1016.51 1016.77 1016.89 1017.05 1017.26 1017.46 1017.61 1017.73 1017.91 1017.97 1018.06 1018.14 1018.14 1018.16 1018.23 1018.22 1018.25 1018.32 1018.38 1018.50 1018.53 1018.48 1018.66 1018.82 1018.92 1019.00 1018.98 1018.90
1011.62 1012.45 1013.15 1012.87 1012.11 1010.78 1009.80 1009.11 1008.63 1008.58 1008.77 1008.73 1009.81 1011.41 1012.51 1012.89 1013.52 1014.20 1015.25 1015.63 1016.31 1016.78 1016.95 1016.98 1017.16 1017.42 1017.62 1017.83 1017.95 1017.95 1018.08 1018.14 1018.12 1018.17 1018.22 1018.22 1018.28 1018.33 1018.43 1018.53 1018.69 1018.82 1018.90 1018.93 1018.97 1019.14 1019.26 1019.20 1019.03
1011.71 1012.12 1012.47 1012.65 1012.36 1010.80 1009.83 1009.15 1008.71 1008.75 1009.21 1009.57 1009.96 1012.19 1012.68 1013.49 1014.01 1014.77 1015.38 1016.03 1016.45 1017.06 1017.17 1017.31 1017.36 1017.47 1017.72 1017.95 1018.05 1018.19 1018.20 1018.23 1018.31 1018.30 1018.41 1018.49 1018.55 1018.58 1018.67 1018.82 1018.76 1018.76 1018.90 1019.11 1019.19 1019.26 1019.43 1019.48 1019.40
1011.75 1012.34 1012.64 1012.61 1011.55 1010.85 1010.14 1009.54 1008.78 1008.73 1009.74 1010.51 1010.75 1011.98 1013.15 1013.82 1014.38 1015.01 1015.58 1016.15 1016.42 1016.98 1017.34 1017.50 1017.67 1017.75 1017.84 1017.91 1018.11 1018.31 1018.31 1018.40 1018.45 1018.61 1018.69 1018.87 1018.85 1018.78 1018.92 1018.98 1018.97 1018.95 1019.00 1019.17 1019.39 1019.49 1019.69 1019.90 1019.91
1011.57 1012.34 1012.05 1011.01 1010.53 1010.84 1010.72 1010.29 1009.58 1009.49 1010.28 1010.97 1011.05 1012.02 1013.67 1014.08 1014.54 1015.22 1015.96 1016.47 1016.68 1016.93 1017.28 1017.61 1017.81 1017.92 1018.07 1018.16 1018.30 1018.38 1018.50 1018.53 1018.67 1018.80 1018.87 1018.95 1019.07 1019.12 1019.12 1019.22 1019.21 1019.27 1019.32 1019.45 1019.80 1019.93 1019.99 1020.31 1020.25
1011.31 1011.77 1011.52 1011.58 1011.40 1011.86 1011.53 1011.02 1010.81 1010.40 1010.70 1010.91 1011.27 1012.54 1013.24 1014.00 1014.69 1015.52 1016.27 1016.81 1017.17 1017.20 1017.33 1017.74 1017.95 1018.15 1018.38 1018.46 1018.56 1018.65 1018.66 1018.70 1018.88 1018.88 1018.99 1019.16 1019.21 1019.17 1019.28 1019.42 1019.50 1019.63 1019.67 1019.81 1019.94 1020.19 1020.22 1020.58 1020.58
1011.27 1011.82 1011.54 1011.94 1011.44 1011.85 1011.72 1011.28 1011.29 1011.53 1011.12 1011.27 1011.22 1012.02 1012.98 1013.97 1014.81 1015.83 1016.70 1017.33 1017.69 1017.83 1017.84 1017.84 1018.11 1018.45 1018.63 1018.76 1018.85 1018.85 1018.86 1018.88 1018.96 1018.96 1019.07 1019.30 1019.43 1019.58 1019.75 1019.82 1019.81 1019.84 1019.86 1020.11 1020.21 1020.26 1020.51 1020.57 1020.82
1011.46 1011.41 1010.68 1010.47 1010.70 1011.21 1011.41 1011.54 1011.71 1011.94 1011.65 1011.63 1011.98 1012.77 1013.35 1014.08 1014.83 1015.63 1016.52 1017.31 1017.70 1017.98 1018.09 1018.15 1018.36 1018.63 1018.75 1018.83 1019.14 1019.22 1019.15 1019.25 1019.10 1019.25 1019.59 1019.72 1019.71 1019.91 1020.00 1019.94 1019.98 1020.01 1020.24 1020.34 1020.21 1020.44 1020.65 1020.80 1021.06
1011.64 1011.51 1010.88 1009.85 1009.84 1010.27 1011.03 1011.59 1011.78 1011.94 1012.11 1011.18 1011.61 1012.72 1013.40 1014.09 1014.84 1015.63 1016.19 1016.68 1017.14 1017.67 1018.05 1018.35 1018.39 1018.56 1018.76 1019.12 1019.34 1019.41 1019.45 1019.61 1019.46 1019.36 1019.60 1019.85 1020.23 1020.47 1020.37 1020.58 1020.57 1020.45 1020.68 1020.69 1020.12 1020.38 1020.71 1021.06 1021.23
1010.97 1010.90 1011.18 1010.03 1009.88 1010.18 1010.77 1011.26 1011.45 1011.86 1011.27 1011.45 1011.71 1012.46 1013.08 1014.17 1014.59 1015.25 1016.06 1016.52 1017.05 1017.54 1017.80 1018.34 1018.29 1018.60 1018.81 1019.06 1019.45 1019.55 1019.68 1019.75 1019.68 1019.64 1019.75 1020.07 1020.84 1020.83 1020.59 1020.78 1020.83 1020.82 1020.88 1021.01 1020.83 1020.72 1020.70 1020.61 1020.92
1009.91 1009.98 1010.33 1010.73 1010.08 1010.28 1010.61 1011.12 1011.34 1011.40 1011.11 1011.55 1011.94 1012.49 1013.01 1013.87 1014.76 1015.17 1015.64 1016.27 1016.79 1017.32 1017.68 1018.17 1018.16 1018.55 1018.75 1018.98 1019.40 1019.65 1019.69 1019.82 1019.64 1019.67 1019.67 1020.16 1020.88 1020.89 1020.89 1020.98 1021.12 1021.12 1021.02 1021.00 1020.98 1021.03 1021.17 1021.09 1020.42
1008.99 1009.93 1010.16 1010.41 1010.30 1010.60 1010.76 1011.51 1011.33 1011.77 1011.55 1011.28 1011.87 1012.54 1012.99 1013.70 1014.29 1015.28 1015.55 1016.34 1016.82 1017.23 1017.64 1017.97 1018.20 1018.35 1018.71 1018.81 1019.20 1019.53 1019.65 1019.79 1019.67 1019.77 1019.75 1020.08 1020.53 1020.91 1021.00 1021.17 1021.07 1021.26 1021.21 1021.16 1021.22 1021.41 1021.33 1021.10 1020.83
1008.57 1009.26 1009.49 1010.03 1010.61 1010.74 1011.20 1012.06 1012.06 1011.73 1011.93 1011.48 1011.87 1012.59 1012.92 1013.61 1014.23 1014.71 1015.43 1016.09 1016.60 1017.21 1017.53 1017.79 1018.18 1018.36 1018.73 1018.99 1019.20 1019.34 1019.59 1019.89 1019.80 1019.72 1019.84 1019.99 1020.43 1020.56 1020.83 1021.12 1021.27 1021.04 1021.09 1021.03 1021.09 1021.26 1021.10 1020.94 1021.00
1008.32 1008.60 1009.72 1010.17 1010.55 1010.80 1011.01 1011.96 1012.38 1012.33 1012.41 1011.79 1012.02 1012.50 1012.88 1013.48 1014.06 1014.66 1015.57 1016.25 1016.66 1017.20 1017.61 1017.88 1018.02 1018.50 1018.76 1019.05 1019.16 1019.28 1019.59 1019.79 1019.97 1019.91 1020.00 1020.28 1020.47 1020.60 1020.90 1021.19 1021.25 1021.36 1021.51 1021.46 1021.44 1021.55 1021.40 1021.35 1021.15
1008.46 1009.00 1009.60 1010.38 1011.09 1010.75 1011.53 1012.30 1012.70 1012.66 1012.67 1012.14 1012.25 1012.47 1012.85 1013.53 1014.16 1014.55 1015.30 1015.89 1016.55 1017.28 1017.55 1017.94 1018.22 1018.58 1019.01 1019.22 1019.07 1019.36 1019.61 1019.82 1020.00 1019.92 1020.31 1020.69 1020.84 1021.02 1021.07 1021.20 1021.32 1021.40 1021.41 1021.51 1021.67 1021.76 1021.49 1021.52 1021.35
1008.94 1009.45 1009.97 1010.12 1011.44 1011.48 1011.92 1012.11 1012.50 1012.84 1012.49 1012.33 1012.46 1012.77 1013.24 1013.51 1013.92 1014.40 1015.24 1015.90 1016.47 1017.40 1017.59 1017.86 1018.38 1018.77 1019.02 1019.33 1019.56 1019.82 1020.00 1020.17 1019.99 1020.11 1020.21 1020.44 1020.49 1020.84 1021.24 1021.42 1021.48 1021.43 1021.68 1021.87 1021.74 1021.49 1021.47 1021.58 1021.52
1008.98 1009.84 1010.62 1011.33 1011.69 1011.74 1012.85 1012.50 1012.68 1013.01 1012.74 1012.51 1012.54 1012.87 1013.28 1013.65 1014.03 1014.38 1015.20 1015.86 1016.64 1017.30 1017.67 1018.07 1018.45 1018.99 1019.30 1019.62 1020.18 1020.43 1020.74 1020.56 1020.57 1020.46 1020.36 1020.56 1020.85 1021.09 1021.28 1021.30 1021.36 1021.60 1021.84 1021.67 1021.88 1021.68 1021.61 1021.61 1021.58
1008.83 1009.56 1010.82 1011.96 1012.78 1012.84 1013.39 1013.40 1013.30 1013.38 1013.06 1012.55 1012.57 1013.00 1013.21 1013.74 1014.13 1014.77 1015.31 1015.98 1016.58 1017.18 1017.72 1018.19 1018.53 1018.95 1019.35 1019.71 1019.98 1020.28 1020.70 1020.88 1020.75 1020.75 1020.83 1020.65 1020.89 1021.16 1021.33 1021.27 1021.44 1021.58 1021.70 1021.61 1021.63 1021.66 1021.80 1021.79 1021.77
1008.35 1008.95 1009.87 1010.84 1012.67 1013.59 1012.60 1014.27 1014.13 1013.72 1013.39 1012.95 1012.78 1012.97 1013.18 1013.58 1014.11 1015.00 1015.40 1015.94 1016.55 1017.15 1017.58 1018.19 1018.47 1018.83 1019.23 1019.76 1020.11 1020.50 1020.69 1020.96 1021.22 1021.11 1021.03 1020.85 1020.94 1021.15 1021.29 1021.25 1021.52 1021.63 1021.92 1021.99 1021.92 1021.93 1021.91 1022.06 1021.83
1007.90 1007.53 1008.69 1010.26 1011.29 1012.85 1012.78 1014.61 1014.76 1014.25 1013.67 1012.96 1012.91 1012.95 1013.09 1013.21 1013.99 1014.68 1015.35 1015.94 1016.25 1016.84 1017.20 1017.75 1018.17 1018.69 1019.24 1019.77 1020.11 1020.44 1020.85 1021.17 1021.18 1021.14 1021.06 1020.98 1020.90 1021.12 1021.21 1021.42 1021.60 1021.65 1021.84 1021.99 1021.83 1021.61 1021.93 1022.03 1022.17
1006.64 1006.78 1007.53 1009.10 1011.05 1012.16 1013.84 1014.22 1014.95 1014.66 1013.77 1013.30 1013.03 1012.92 1013.09 1013.18 1013.58 1014.48 1015.10 1015.46 1015.89 1016.43 1016.78 1017.40 1018.00 1018.64 1019.15 1019.66 1020.01 1020.42 1020.83 1020.98 1021.00 1020.96 1021.11 1021.23 1021.22 1020.96 1021.08 1021.34 1021.63 1021.81 1021.81 1021.79 1021.86 1021.74 1021.96 1022.04 1022.05
1005.70 1006.59 1008.04 1009.71 1011.12 1012.26 1012.48 1012.94 1014.17 1013.30 1012.62 1012.97 1013.05 1013.17 1013.19 1013.54 1013.69 1014.03 1014.63 1015.08 1015.72 1016.37 1016.79 1017.26 1018.00 1018.53 1019.00 1019.35 1019.98 1020.37 1020.59 1020.87 1021.13 1021.20 1021.18 1021.13 1021.32 1021.13 1021.15 1021.23 1021.46 1021.62 1021.80 1021.72 1021.78 1021.98 1022.03 1022.06 1022.01
1005.32 1006.88 1009.01 1010.62 1011.74 1011.62 1011.52 1012.54 1011.81 1010.97 1011.50 1012.03 1012.63 1013.14 1013.61 1014.16 1014.03 1014.07 1014.47 1015.25 1015.73 1016.18 1016.76 1017.28 1017.87 1018.46 1019.04 1019.33 1019.69 1020.10 1020.34 1020.62 1020.82 1020.93 1021.07 1021.10 1021.22 1021.28 1021.30 1021.24 1021.46 1021.60 1021.66 1021.59 1021.72 1021.88 1021.97 1022.04 1022.14
1005.21 1006.40 1008.28 1009.57 1010.91 1011.24 1011.52 1012.79 1012.27 1011.65 1011.92 1012.56 1012.67 1013.17 1013.75 1013.84 1014.15 1014.67 1014.83 1014.81 1015.22 1015.69 1016.45 1017.04 1017.61 1018.23 1018.72 1019.15 1019.54 1019.90 1020.13 1020.16 1020.23 1020.45 1020.71 1020.83 1020.90 1020.96 1020.79 1020.98 1021.23 1021.18 1021.30 1021.49 1021.53 1021.68 1021.81 1021.92 1022.13
1005.00 1006.14 1006.95 1008.66 1009.98 1011.26 1012.62 1013.49 1013.27 1013.18 1013.45 1013.63 1014.06 1014.42 1014.68 1014.58 1014.25 1014.70 1014.81 1015.09 1015.26 1015.62 1016.15 1016.58 1017.21 1017.79 1018.33 1018.76 1019.18 1019.44 1019.76 1019.90 1019.94 1020.24 1020.33 1020.46 1020.47 1020.38 1020.18 1020.65 1020.89 1021.03 1021.16 1021.27 1021.46 1021.74 1021.70 1021.69 1021.92
1004.32 1005.57 1007.17 1008.69 1010.15 1012.28 1013.34 1013.84 1014.06 1014.03 1014.38 1014.84 1015.28 1015.51 1015.41 1015.21 1014.70 1014.51 1015.01 1015.10 1015.58 1016.14 1016.75 1017.12 1017.24 1017.96 1018.44 1018.80 1018.94 1019.05 1019.29 1019.60 1019.61 1020.03 1020.18 1020.17 1020.10 1019.92 1020.08 1020.36 1020.48 1020.75 1020.99 1021.14 1021.23 1021.55 1021.65 1021.83 1021.73
1005.23 1006.01 1007.39 1008.74 1009.93 1012.48 1013.21 1014.26 1014.00 1014.50 1015.02 1015.83 1016.09 1016.22 1016.11 1016.01 1015.80 1015.88 1015.85 1015.98 1016.28 1016.84 1017.26 1017.79 1018.12 1018.20 1018.58 1018.92 1019.25 1019.17 1019.13 1019.21 1019.45 1019.59 1019.83 1020.09 1019.82 1019.93 1020.27 1020.34 1020.58 1020.73 1020.96 1021.03 1021.43 1021.46 1021.55 1021.62 1021.57
1005.14 1006.17 1007.27 1009.23 1010.19 1011.62 1012.97 1015.02 1014.80 1015.17 1015.78 1016.59 1016.92 1016.79 1016.73 1016.69 1016.69 1016.71 1016.60 1016.89 1016.78 1017.17 1018.02 1017.54 1018.71 1018.64 1018.74 1018.94 1019.22 1019.31 1019.09 1019.15 1019.30 1019.28 1019.44 1019.57 1019.84 1019.81 1020.00 1020.40 1020.75 1020.72 1020.84 1021.08 1021.28 1021.40 1021.41 1021.49 1021.64
Wind_Speed
6 5 3 1 2 1 5 3 4 6 8 8 18 4 7 8 3 5 12 12 14 11 10 11 14 14 14 13 13 13 13 13 13 13 13 14 13 14 15 14 14 14 14 15 16 17 17 17 16
5 5 1 1 1 3 3 5 12 13 16 21 14 13 9 6 9 15 13 15 14 11 8 9 13 13 13 14 13 12 12 13 13 12 12 11 14 13 14 14 13 13 14 14 15 15 16 15 14
5 3 2 1 1 4 4 10 13 15 12 10 9 12 6 9 16 11 15 18 14 10 7 10 13 13 13 13 12 11 12 14 13 12 12 12 13 14 15 13 13 13 13 13 13 13 13 12 9
4 2 2 2 3 6 6 14 16 18 16 16 16 13 10 6 8 13 20 17 13 9 7 13 14 14 13 12 12 12 13 12 13 12 13 13 14 14 15 15 14 12 13 13 12 12 12 10 9
2 2 1 3 5 4 5 17 18 14 10 15 21 13 9 8 18 21 20 16 14 9 7 9 13 14 13 12 12 12 12 12 12 13 12 13 15 15 15 14 13 12 11 11 11 10 11 10 11
2 2 1 3 4 6 7 7 18 20 17 17 22 17 6 20 21 18 17 15 14 13 8 8 13 13 14 13 12 13 12 12 12 12 12 12 13 14 14 13 12 10 10 9 10 8 9 9 12
2 1 2 6 8 12 7 5 13 22 22 11 18 18 14 19 18 18 16 14 13 12 9 6 6 10 13 13 12 12 12 12 12 12 12 13 13 14 13 13 12 8 9 8 8 6 7 9 8
2 2 2 3 6 5 3 2 5 10 16 16 19 10 20 20 21 17 15 13 11 10 10 7 5 6 5 5 12 12 11 12 12 12 14 14 13 13 13 11 10 10 8 8 6 4 4 3 3
3 3 5 9 11 7 7 7 6 5 13 15 7 14 20 22 20 16 13 12 8 8 7 7 6 5 5 4 7 11 12 12 13 11 13 10 4 5 8 9 9 11 8 8 4 3 3 2 4
4 4 4 17 14 12 11 5 7 3 10 5 20 16 22 22 20 20 16 11 8 8 7 6 6 6 6 6 5 4 4 3 4 5 6 3 3 5 5 8 9 8 10 6 2 6 8 9 4
3 2 10 6 12 20 15 10 6 8 7 15 22 24 23 22 20 18 18 16 12 11 6 7 7 6 6 5 3 1 2 2 2 5 5 2 2 4 4 3 3 3 5 2 6 5 3 3 2
4 7 4 8 12 16 14 10 8 13 12 17 22 23 22 20 18 20 16 16 15 13 9 8 7 6 5 5 3 3 2 2 3 3 5 5 4 3 3 3 3 3 2 2 1 3 5 6 5
7 7 8 15 12 12 14 9 6 9 15 15 19 21 21 18 16 16 17 15 15 12 11 9 7 7 6 6 4 3 3 3 4 4 5 5 5 3 3 3 1 2 2 1 1 2 3 5 5
9 6 12 10 11 12 11 8 9 5 5 18 19 20 16 19 16 15 17 13 12 11 11 10 6 7 7 5 6 4 3 3 3 3 4 4 5 4 3 4 2 2 0 2 2 1 3 4 3
13 7 11 15 12 13 15 5 11 7 3 17 16 15 16 14 18 20 16 15 13 10 11 9 8 7 7 6 5 4 4 3 2 4 5 6 6 5 4 2 2 1 3 6 4 4 3 3 3
5 5 5 12 12 12 4 6 14 10 6 14 14 10 12 18 19 17 15 13 12 11 13 9 8 8 8 6 4 4 4 4 3 4 3 6 5 3 3 1 2 1 3 2 3 2 3 2 2
1 3 4 14 6 11 2 7 13 11 9 16 13 8 12 19 17 17 15 15 14 12 12 8 7 8 7 6 4 6 6 4 3 3 5 6 7 5 5 3 4 4 3 3 3 2 0 0 2
3 4 2 9 3 9 1 7 14 11 8 15 12 6 15 18 18 17 18 16 16 9 9 10 6 8 6 5 5 3 4 3 3 3 4 4 3 6 6 4 4 2 3 3 3 1 1 1 2
5 4 8 5 2 8 9 7 13 6 7 10 10 6 14 18 14 16 18 17 12 10 11 8 9 7 5 2 4 3 3 1 2 2 5 6 4 3 4 1 3 1 3 3 1 1 1 2 0
4 1 7 13 10 5 5 7 8 2 5 12 9 6 11 13 13 17 19 16 13 12 10 8 10 8 5 4 2 3 3 1 2 2 2 5 5 4 4 3 0 1 2 3 2 1 1 2 2
7 5 8 12 11 4 12 3 2 9 5 7 4 6 10 15 14 14 18 17 13 13 12 10 9 9 6 7 4 3 3 3 2 0 1 3 5 5 5 2 2 3 2 2 0 1 1 1 2
7 8 11 24 11 6 2 4 4 6 11 9 6 5 11 14 15 17 16 15 15 12 11 11 10 9 7 7 4 5 4 3 3 2 1 3 4 6 5 5 3 2 2 2 1 2 0 2 3
12 8 13 21 5 10 6 6 3 6 12 16 6 7 6 9 13 16 17 17 15 13 13 13 10 9 7 8 6 4 3 3 2 2 3 3 4 6 6 6 6 4 3 3 1 2 2 1 2
12 4 7 6 4 1 10 6 5 9 18 15 9 6 7 7 8 11 15 16 14 11 11 12 11 8 8 7 8 7 7 5 2 2 3 4 2 2 3 5 5 4 3 3 1 1 2 1 2
5 8 2 1 2 7 15 4 7 14 22 22 15 13 6 5 2 6 15 15 14 14 12 11 11 8 8 7 7 7 7 7 7 5 4 4 3 2 4 5 4 3 3 3 2 3 1 1 0
5 9 7 6 4 2 12 4 5 4 5 4 2 5 4 6 3 1 7 16 18 16 14 14 12 10 8 8 8 7 7 5 4 5 4 4 4 4 6 6 6 5 4 4 3 2 2 1 2
3 2 7 6 3 5 3 2 7 8 5 7 3 2 3 4 6 7 6 5 12 15 16 16 14 12 10 9 8 7 6 6 5 6 5 4 5 5 6 7 7 6 6 5 4 3 3 3 1
9 4 4 4 5 2 3 5 3 5 6 10 7 7 6 6 1 7 6 8 7 8 5 5 4 5 2 4 7 8 8 7 6 5 6 6 6 5 5 7 7 6 5 5 5 3 3 4 4
4 4 5 5 5 7 4 2 4 11 11 10 8 6 7 8 8 5 7 9 11 12 12 9 6 6 7 4 2 4 7 7 6 6 6 6 5 6 6 6 6 6 6 6 5 5 5 4 5
6 6 6 6 2 4 5 2 10 15 14 10 7 6 7 9 8 6 9 5 7 9 8 7 5 6 7 5 5 5 5 5 6 6 6 6 7 6 6 6 6 6 6 5 6 6 5 5 5
Wind_Direction
160 152 171 229 98 360 258 141 175 142 161 165 154 145 157 104 137 174 133 138 133 134 135 139 130 130 127 125 115 115 114 112 110 105 109 113 113 108 108 108 106 105 104 102 102 105 104 106 108
162 164 244 36 15 146 256 78 95 95 111 103 88 76 54 79 83 116 122 139 134 137 131 128 134 133 126 122 121 117 115 113 110 112 110 113 112 108 106 106 109 108 107 106 107 107 110 108 111
159 215 79 15 144 213 155 133 113 121 112 110 106 73 73 99 111 130 131 135 138 132 129 137 134 133 130 125 117 114 109 109 112 119 114 116 114 114 111 108 105 104 104 101 106 108 108 110 115
157 75 45 104 266 264 93 125 111 98 84 87 108 75 92 114 107 130 136 136 129 130 130 135 136 129 128 125 123 118 111 115 114 120 123 122 123 120 115 117 112 106 103 106 108 110 109 103 107
232 92 207 115 228 243 66 137 141 116 77 106 114 117 103 100 118 132 137 135 131 128 134 137 141 134 131 131 126 120 119 118 120 121 121 126 121 117 119 118 119 114 107 108 111 117 107 89 85
87 101 81 183 208 120 73 27 112 99 112 113 105 119 108 130 138 142 137 136 136 136 140 145 136 138 141 139 131 123 126 122 115 113 116 111 109 112 116 123 123 118 122 107 110 123 114 102 102
169 69 329 284 104 87 67 1 87 109 120 127 125 118 133 141 139 137 134 130 138 138 134 135 147 146 144 140 131 128 124 121 123 114 120 115 117 119 121 130 127 123 110 101 87 78 101 101 101
193 168 190 227 174 101 10 44 312 95 112 116 124 139 150 144 137 131 129 130 135 140 143 142 140 123 130 139 134 130 135 130 125 126 124 120 129 126 127 133 129 110 90 80 67 68 44 68 92
113 277 141 152 179 137 187 128 333 13 128 143 129 144 141 139 129 126 123 122 136 146 151 148 143 134 135 128 140 140 143 141 136 133 128 123 123 115 112 119 124 116 112 89 67 97 66 22 99
148 285 179 170 178 159 168 142 166 141 139 117 120 140 138 138 138 142 135 147 154 154 164 159 138 148 151 146 118 145 154 124 134 122 110 112 135 123 111 129 123 125 105 79 334 139 69 42 8
137 280 320 173 149 148 153 146 164 138 131 167 145 155 149 141 148 150 150 159 159 161 168 164 162 159 156 120 143 144 133 131 157 154 149 187 107 57 66 69 81 78 87 38 347 13 31 41 298
102 228 276 128 137 144 165 152 154 175 184 187 145 161 149 151 151 149 152 157 155 156 167 156 167 160 149 136 155 171 170 149 180 184 154 120 89 111 123 120 134 91 32 357 341 327 333 324 228
168 198 295 252 158 140 136 146 148 125 145 182 141 159 157 159 154 151 152 157 149 154 163 162 169 158 161 149 160 160 188 169 200 156 156 128 129 145 140 117 66 98 117 324 294 19 326 304 307
172 129 158 188 150 138 123 126 130 224 194 159 142 158 164 150 149 148 149 153 151 156 151 152 161 140 154 163 157 173 191 181 164 137 184 134 132 155 178 132 162 74 150 274 261 285 318 327 326
149 152 161 157 153 138 128 119 159 174 151 163 161 157 175 151 146 156 160 150 151 155 144 148 142 140 139 144 170 167 161 164 138 142 131 140 148 161 147 160 128 38 336 314 322 332 319 332 221
166 86 157 170 165 161 144 147 166 189 206 183 174 170 163 151 154 156 148 145 146 139 146 151 147 118 116 137 153 155 163 146 143 134 117 123 132 163 112 184 239 226 231 261 297 304 317 30 3
320 172 169 147 320 162 11 111 185 195 211 179 183 183 140 151 152 150 150 145 151 156 151 141 134 128 136 129 119 118 139 148 149 119 120 141 135 136 131 191 247 209 234 295 257 236 157 267 313
211 182 180 146 134 63 8 126 160 188 192 186 187 159 151 155 158 158 159 154 153 158 152 144 140 131 136 101 91 81 92 115 154 127 122 116 134 125 127 176 217 183 176 213 256 335 1 205 261
269 355 94 76 103 65 316 145 175 182 194 197 188 159 153 166 159 149 157 155 143 155 153 157 127 144 128 105 109 99 130 138 56 137 149 143 134 131 136 156 158 214 161 184 170 158 38 313 89
273 151 94 93 144 95 46 83 173 192 236 199 183 158 160 160 156 143 156 155 152 161 152 148 148 153 158 121 133 127 146 170 138 183 220 142 164 156 174 160 231 216 76 52 41 35 340 314 59
268 200 184 129 108 101 93 59 292 233 256 185 170 158 174 154 149 148 153 163 155 155 154 157 155 163 142 126 107 72 52 62 78 177 260 235 179 171 157 180 172 150 119 160 257 62 134 44 309
270 215 148 146 156 173 191 185 230 263 238 194 176 174 180 169 153 157 159 165 164 162 157 158 158 146 147 141 143 151 158 155 205 206 177 232 194 184 169 177 194 194 141 254 117 177 284 125 31
240 239 173 170 87 109 220 104 146 237 218 212 206 203 164 170 158 164 166 168 175 161 164 165 164 146 152 152 158 136 156 181 207 186 189 226 205 194 171 167 179 174 188 228 99 88 216 281 102
239 124 64 104 118 96 190 147 190 180 199 212 215 209 165 175 172 159 170 169 172 169 161 164 171 168 161 152 152 173 168 167 165 200 178 187 230 175 220 181 189 182 182 220 210 237 232 120 85
144 81 47 20 58 223 176 168 204 198 179 181 209 195 132 65 225 153 157 171 170 173 169 168 171 181 162 160 158 172 185 165 193 194 174 169 174 196 213 192 205 191 213 225 239 258 278 115 249
160 146 156 147 172 227 158 234 300 156 133 161 108 89 101 117 123 233 192 173 176 175 170 173 176 180 169 168 171 177 198 176 189 174 183 187 193 206 186 183 197 200 207 216 218 230 248 197 272
267 138 193 136 164 77 118 71 37 77 68 67 118 135 233 229 161 215 135 161 182 174 175 177 178 183 177 180 169 182 186 184 198 193 201 184 225 218 186 188 180 197 210 212 208 214 260 286 235
143 171 48 13 140 48 286 153 159 132 107 88 82 66 57 12 226 130 125 116 101 99 105 71 150 155 158 183 190 182 190 197 207 178 232 213 203 221 185 179 180 191 211 216 201 222 249 250 270
37 67 69 109 125 169 170 55 211 136 118 103 88 66 61 57 54 73 91 101 101 93 84 68 76 95 90 80 59 241 207 197 200 195 218 202 195 193 191 184 187 193 197 222 224 219 236 258 277
143 156 109 116 264 109 120 101 112 101 94 99 91 85 66 60 55 66 75 84 102 90 89 86 61 74 71 96 80 351 257 208 209 223 190 194 198 202 187 193 207 209 206 217 216 224 231 235 258